K5SVV Weather Reports


time (UTC)temp
F
wind
direction
speed
knots
gust
knots
rain 1hr
in
rain 24hr
in
rain mn
in
humidity
%
barometer
mb
20260506014015 78 233 0.0 0.0 0.00 0.00 0.00 83 1005.1
20260506013513 78 235 0.0 0.0 0.00 0.00 0.00 83 1004.9
20260506013010 78 357 0.0 0.0 0.00 0.00 0.00 83 1004.7
20260506012506 79 206 0.0 0.0 0.00 0.00 0.00 83 1004.8
20260506012003 79 206 0.0 0.0 0.00 0.00 0.00 82 1004.4
20260506011501 79 142 3.5 3.5 0.00 0.00 0.00 82 1004.6
20260506010957 79 151 3.5 5.2 0.00 0.00 0.00 82 1004.2
20260506010456 79 167 0.0 0.0 0.00 0.00 0.00 82 1003.9
20260506005951 79 162 0.0 0.0 0.00 0.00 0.00 82 1004.1
20260506005449 79 208 4.3 7.8 0.00 0.00 0.00 82 1004.1
20260506004944 79 163 0.0 0.0 0.00 0.00 0.00 82 1004.1
20260506004443 80 162 2.6 5.2 0.00 0.00 0.00 81 1004.2
20260506003938 80 204 1.7 7.8 0.00 0.00 0.00 81 1004.3
20260506003435 80 144 5.2 6.1 0.00 0.00 0.00 81 1004.2
20260506002932 80 202 0.0 0.0 0.00 0.00 0.00 81 1004.2
20260506002428 81 190 1.7 7.8 0.00 0.00 0.00 80 1004.0
20260506001923 81 163 5.2 7.0 0.00 0.00 0.00 80 1004.1
20260506001421 81 160 2.6 3.5 0.00 0.00 0.00 80 1003.9
20260506000918 81 156 2.6 5.2 0.00 0.00 0.00 80 1003.8
20260506000416 81 167 3.5 5.2 0.00 0.00 0.00 80 1004.0
20260505235912 81 163 0.0 1.7 0.00 0.00 0.00 80 1003.9
20260505235410 81 170 0.9 3.5 0.00 0.00 0.00 80 1004.2
20260505234907 81 174 4.3 7.0 0.00 0.00 0.00 80 1003.9
20260505234404 81 171 5.2 7.0 0.00 0.00 0.00 79 1004.0
20260505233901 81 156 3.5 6.1 0.00 0.00 0.00 79 1004.2
20260505233359 82 207 7.8 9.6 0.00 0.00 0.00 79 1004.0
20260505232856 82 156 4.3 6.1 0.00 0.00 0.00 78 1003.8
20260505232354 82 192 4.3 6.1 0.00 0.00 0.00 78 1003.8
20260505231850 82 185 5.2 6.1 0.00 0.00 0.00 78 1003.8
20260505231348 83 158 2.6 7.8 0.00 0.00 0.00 78 1004.0
20260505230846 83 158 3.5 6.1 0.00 0.00 0.00 77 1003.7
20260505230343 83 153 7.0 11.3 0.00 0.00 0.00 77 1003.5
20260505225839 83 140 4.3 6.1 0.00 0.00 0.00 77 1003.6
20260505225337 83 193 0.0 0.0 0.00 0.00 0.00 77 1003.5
20260505224831 84 185 5.2 6.1 0.00 0.00 0.00 77 1003.5
20260505224330 84 178 2.6 2.6 0.00 0.00 0.00 76 1003.4
20260505223826 85 159 0.0 0.0 0.00 0.00 0.00 75 1003.5
20260505223323 85 187 4.3 5.2 0.00 0.00 0.00 74 1003.3
20260505222819 85 198 3.5 5.2 0.00 0.00 0.00 73 1003.7
20260505222315 85 176 2.6 5.2 0.00 0.00 0.00 73 1003.7
20260505221813 85 197 4.3 7.0 0.00 0.00 0.00 73 1003.6
20260505221309 85 196 3.5 5.2 0.00 0.00 0.00 74 1003.5
20260505220806 85 194 5.2 7.8 0.00 0.00 0.00 73 1003.4
20260505220303 86 157 7.0 7.8 0.00 0.00 0.00 72 1003.6
20260505215802 86 186 4.3 5.2 0.00 0.00 0.00 71 1003.7
20260505215259 86 185 0.9 2.6 0.00 0.00 0.00 72 1003.6
20260505214756 87 175 7.0 7.8 0.00 0.00 0.00 71 1003.7
20260505214254 87 188 3.5 5.2 0.00 0.00 0.00 71 1003.4
20260505213751 86 195 7.0 7.8 0.00 0.00 0.00 71 1003.4
20260505213249 86 173 5.2 7.0 0.00 0.00 0.00 71 1003.7
20260505212744 86 179 5.2 7.0 0.00 0.00 0.00 71 1003.6
20260505212242 87 186 5.2 7.8 0.00 0.00 0.00 69 1003.6
20260505211738 87 190 4.3 6.1 0.00 0.00 0.00 71 1003.8
20260505211236 87 160 3.5 5.2 0.00 0.00 0.00 70 1003.8
20260505210732 86 193 3.5 5.2 0.00 0.00 0.00 72 1003.9
20260505210229 86 228 5.2 7.8 0.00 0.00 0.00 71 1004.0
20260505205726 86 181 6.1 8.7 0.00 0.00 0.00 71 1003.9
20260505205224 86 177 7.8 11.3 0.00 0.00 0.00 71 1003.7
20260505204720 86 174 1.7 2.6 0.00 0.00 0.00 71 1003.8
20260505204219 86 194 7.8 9.6 0.00 0.00 0.00 70 1004.3
20260505203715 87 197 5.2 6.1 0.00 0.00 0.00 70 1004.1
20260505203212 86 217 4.3 7.8 0.00 0.00 0.00 73 1004.3
20260505202708 86 193 8.7 12.2 0.00 0.00 0.00 71 1004.3
20260505202204 86 195 4.3 7.0 0.00 0.00 0.00 72 1004.3
20260505201701 86 213 4.3 6.1 0.00 0.00 0.00 73 1004.1
20260505201159 85 222 6.1 9.6 0.00 0.00 0.00 71 1004.4
20260505200657 85 184 7.0 9.6 0.00 0.00 0.00 74 1004.2
20260505200153 85 240 1.7 3.5 0.00 0.00 0.00 73 1004.4
20260505195649 85 198 5.2 7.0 0.00 0.00 0.00 72 1004.3
20260505195147 84 208 7.8 8.7 0.00 0.00 0.00 73 1004.4
20260505194644 84 220 7.8 9.6 0.00 0.00 0.00 73 1004.5
20260505194140 84 190 5.2 5.2 0.00 0.00 0.00 74 1004.6
20260505193636 84 203 4.3 5.2 0.00 0.00 0.00 73 1004.4
20260505193134 84 236 5.2 6.1 0.00 0.00 0.00 73 1004.5
20260505192632 84 199 6.1 7.0 0.00 0.00 0.00 74 1004.5
20260505192129 83 237 7.8 9.6 0.00 0.00 0.00 72 1004.7
20260505191628 84 205 9.6 12.2 0.00 0.00 0.00 73 1004.7
20260505191125 83 190 4.3 5.2 0.00 0.00 0.00 75 1004.7
20260505190621 83 206 7.0 8.7 0.00 0.00 0.00 75 1004.6
20260505190116 83 224 7.8 9.6 0.00 0.00 0.00 73 1004.8
20260505185613 83 168 5.2 7.0 0.00 0.00 0.00 74 1004.8
20260505185109 83 196 5.2 7.8 0.00 0.00 0.00 74 1004.9
20260505184606 83 199 5.2 7.0 0.00 0.00 0.00 74 1004.8
20260505184103 82 227 5.2 6.1 0.00 0.00 0.00 75 1005.0
20260505183559 82 182 7.0 9.6 0.00 0.00 0.00 75 1005.0
20260505183057 82 218 7.8 9.6 0.00 0.00 0.00 74 1005.0
20260505182553 82 224 5.2 6.1 0.00 0.00 0.00 75 1005.3
20260505182050 81 198 6.1 7.8 0.00 0.00 0.00 75 1005.3
20260505181546 82 211 7.8 9.6 0.00 0.00 0.00 76 1005.3
20260505181044 82 209 7.0 8.7 0.00 0.00 0.00 76 1005.3
20260505180539 81 223 5.2 7.0 0.00 0.00 0.00 76 1005.1
20260505180038 81 162 8.7 13.0 0.00 0.00 0.00 76 1005.4
20260505175537 81 191 6.1 7.0 0.00 0.00 0.00 77 1005.2
20260505175035 80 202 7.8 13.0 0.00 0.00 0.00 78 1005.1
20260505174532 79 202 9.6 12.2 0.00 0.00 0.00 78 1005.3
20260505174028 80 209 7.8 11.3 0.00 0.00 0.00 78 1005.3
20260505173525 80 198 4.3 6.1 0.00 0.00 0.00 79 1005.0
20260505173022 79 214 5.2 9.6 0.00 0.00 0.00 78 1005.0
20260505172520 80 245 4.3 6.1 0.00 0.00 0.00 78 1005.2
20260505172015 79 165 8.7 9.6 0.00 0.00 0.00 78 1004.9
20260505171510 79 176 7.8 9.6 0.00 0.00 0.00 81 1004.9
20260505171008 78 190 7.0 9.6 0.00 0.00 0.00 80 1005.2
20260505170505 78 175 9.6 12.2 0.00 0.00 0.00 81 1005.2
20260505170000 78 214 7.8 9.6 0.00 0.00 0.00 81 1005.2
20260505165456 78 183 7.0 8.7 0.00 0.00 0.00 82 1005.1
20260505164952 77 195 8.7 12.2 0.00 0.00 0.00 82 1004.9
20260505164448 78 200 12.2 14.8 0.00 0.00 0.00 81 1004.9
20260505163946 78 205 7.0 8.7 0.00 0.00 0.00 82 1005.0
20260505163445 77 238 9.6 13.9 0.00 0.00 0.00 81 1005.0
20260505162944 77 214 7.8 8.7 0.00 0.00 0.00 82 1005.3
20260505162439 77 194 10.4 13.9 0.00 0.00 0.00 82 1005.5
20260505161936 77 184 12.2 13.9 0.00 0.00 0.00 82 1005.2
20260505161433 77 191 7.8 8.7 0.00 0.00 0.00 82 1005.0
20260505160930 77 187 4.3 6.1 0.00 0.00 0.00 82 1005.3
20260505160429 76 155 5.2 7.0 0.00 0.00 0.00 83 1005.0
20260505152904 74 186 9.6 12.2 0.00 0.00 0.00 85 1005.1
20260505152356 74 207 6.1 7.8 0.00 0.00 0.00 85 1005.1
20260505151855 75 217 9.6 13.9 0.00 0.00 0.00 85 1005.3
20260505151352 74 235 7.0 9.6 0.00 0.00 0.00 85 1005.4
20260505150849 74 244 6.1 7.8 0.00 0.00 0.00 85 1005.7
20260505150347 75 161 13.0 15.6 0.00 0.00 0.00 84 1005.4
20260505140311 73 196 11.3 13.9 0.00 0.00 0.00 87 1004.8
20260505130229 70 215 8.7 11.3 0.00 0.00 0.00 91 1004.6
20260505124719 70 218 7.8 14.8 0.00 0.00 0.00 92 1004.2
20260505124216 70 196 7.0 8.7 0.00 0.00 0.00 92 1004.1
20260505123711 69 200 6.1 8.7 0.00 0.00 0.00 92 1004.3
20260505123208 69 190 6.1 7.8 0.00 0.00 0.00 92 1004.4
20260505122704 69 196 7.8 8.7 0.00 0.00 0.00 92 1004.2
20260505122201 69 195 7.0 8.7 0.00 0.00 0.00 92 1004.0
20260505121653 69 175 8.7 9.6 0.00 0.00 0.00 92 1004.1
20260505121149 69 189 12.2 14.8 0.00 0.00 0.00 93 1003.9
20260505120646 69 156 8.7 11.3 0.00 0.00 0.00 92 1003.9
20260505120141 69 210 8.7 12.2 0.00 0.00 0.00 93 1003.8
20260505115635 69 199 9.6 12.2 0.00 0.00 0.00 92 1003.9
20260505115133 69 208 11.3 13.9 0.00 0.00 0.00 92 1004.0
20260505114625 69 215 6.1 8.7 0.00 0.00 0.00 92 1003.9
20260505114120 69 215 5.2 8.7 0.00 0.00 0.00 92 1003.8
20260505113617 69 171 9.6 12.2 0.00 0.00 0.00 92 1003.8
20260505113113 69 208 5.2 7.8 0.00 0.00 0.00 92 1003.9
20260505112609 69 196 7.8 8.7 0.00 0.00 0.00 92 1004.0
20260505112108 69 192 5.2 7.8 0.00 0.00 0.00 92 1003.8
20260505111602 69 191 3.5 6.1 0.00 0.00 0.00 92 1003.9
20260505111058 69 211 6.1 9.6 0.00 0.00 0.00 92 1003.8
20260505110555 69 198 1.7 5.2 0.00 0.00 0.00 92 1003.9
20260505102027 69 169 7.8 12.2 0.00 0.00 0.00 92 1004.0
20260505101526 69 203 13.0 15.6 0.00 0.00 0.00 91 1003.9
20260505101022 69 207 7.8 11.3 0.00 0.00 0.00 91 1004.0
20260505100519 69 211 7.0 13.9 0.00 0.00 0.00 91 1003.9
20260505100016 69 184 7.0 9.6 0.00 0.00 0.00 91 1003.6
20260505095512 70 150 7.8 11.3 0.00 0.00 0.00 91 1003.9
20260505095008 70 193 8.7 9.6 0.00 0.00 0.00 91 1003.8
20260505094505 70 196 4.3 6.1 0.00 0.00 0.00 91 1004.1
20260505094001 70 185 5.2 6.1 0.00 0.00 0.00 91 1003.9
20260505093458 70 213 9.6 12.2 0.00 0.00 0.00 91 1004.0
20260505092955 70 200 9.6 12.2 0.00 0.00 0.00 91 1003.9
20260505092453 70 206 11.3 13.9 0.00 0.00 0.00 91 1004.2
20260505091950 70 192 11.3 13.9 0.00 0.00 0.00 91 1004.1
20260505091448 70 199 5.2 7.0 0.00 0.00 0.00 91 1004.1
20260505090946 70 209 8.7 12.2 0.00 0.00 0.00 91 1004.1
20260505090443 70 221 10.4 11.3 0.00 0.00 0.00 91 1004.0
20260505085940 69 211 12.2 15.6 0.00 0.00 0.00 91 1004.2
20260505085438 69 200 8.7 9.6 0.00 0.00 0.00 91 1004.0
20260505084936 69 179 12.2 14.8 0.00 0.00 0.00 91 1004.0
20260505084434 69 214 7.0 8.7 0.00 0.00 0.00 91 1003.9
20260505083932 69 200 11.3 13.9 0.00 0.00 0.00 91 1003.8
20260505083429 69 197 8.7 11.3 0.00 0.00 0.00 91 1003.9
20260505082925 69 203 10.4 12.2 0.00 0.00 0.00 91 1004.2
20260505082421 69 197 11.3 13.9 0.00 0.00 0.00 91 1004.2
20260505081918 69 157 7.8 8.7 0.00 0.00 0.00 91 1004.1
20260505081415 69 215 11.3 13.0 0.00 0.00 0.00 91 1004.0
20260505080911 69 184 8.7 12.2 0.00 0.00 0.00 91 1004.1
20260505080408 69 174 8.7 11.3 0.00 0.00 0.00 91 1004.3
20260505075903 69 161 7.8 8.7 0.00 0.00 0.00 91 1004.4
20260505075400 69 190 11.3 13.0 0.00 0.00 0.00 91 1004.5
20260505074858 69 209 5.2 7.8 0.00 0.00 0.00 91 1004.5
20260505074355 69 195 11.3 13.9 0.00 0.00 0.00 91 1004.3
20260505073851 69 195 7.8 11.3 0.00 0.00 0.00 91 1004.7
20260505073350 69 178 9.6 13.9 0.00 0.00 0.00 91 1004.5
20260505072847 69 192 10.4 13.9 0.00 0.00 0.00 90 1004.9
20260505072343 69 165 8.7 9.6 0.00 0.00 0.00 90 1004.9
20260505071839 69 185 10.4 13.0 0.00 0.00 0.00 90 1005.0
20260505071335 69 142 11.3 13.9 0.00 0.00 0.00 90 1005.2
20260505070834 70 190 8.7 13.0 0.00 0.00 0.00 89 1005.2
20260505070330 70 155 10.4 12.2 0.00 0.00 0.00 89 1005.3
20260505065825 70 211 7.0 9.6 0.00 0.00 0.00 89 1005.2
20260505065322 70 200 7.8 9.6 0.00 0.00 0.00 88 1005.4
20260505064819 70 189 4.3 7.0 0.00 0.00 0.00 88 1005.3
20260505064316 71 198 7.8 9.6 0.00 0.00 0.00 88 1005.7
20260505063814 71 172 7.8 9.6 0.00 0.00 0.00 87 1005.7
20260505063310 71 201 7.0 8.7 0.00 0.00 0.00 87 1005.2
20260505062807 71 194 8.7 11.3 0.00 0.00 0.00 87 1005.4
20260505062304 71 196 8.7 11.3 0.00 0.00 0.00 87 1005.9
20260505061801 71 208 8.7 9.6 0.00 0.00 0.00 86 1005.7
20260505061259 71 204 12.2 18.2 0.00 0.00 0.00 86 1005.5
20260505060756 71 206 9.6 11.3 0.00 0.00 0.00 86 1005.5
20260505060253 71 201 10.4 14.8 0.00 0.00 0.00 86 1005.5
20260505055749 71 204 12.2 13.9 0.00 0.00 0.00 85 1005.5
20260505055245 71 194 7.8 11.3 0.00 0.00 0.00 85 1005.7
20260505054742 71 198 10.4 13.0 0.00 0.00 0.00 85 1005.4
20260505054240 72 223 12.2 15.6 0.00 0.00 0.00 84 1005.4
20260505053738 72 207 9.6 13.9 0.00 0.00 0.00 84 1005.7
20260505053234 72 188 10.4 12.2 0.00 0.00 0.00 83 1005.8
20260505052731 72 184 10.4 15.6 0.00 0.00 0.00 83 1005.9
20260505052228 72 222 8.7 9.6 0.00 0.00 0.00 83 1005.8
20260505051725 72 154 8.7 11.3 0.00 0.00 0.00 82 1005.8
20260505051223 72 176 9.6 11.3 0.00 0.00 0.00 82 1005.7
20260505050721 72 189 11.3 14.8 0.00 0.00 0.00 82 1006.1
20260505050219 73 184 11.3 15.6 0.00 0.00 0.00 81 1005.8
20260505041649 73 214 7.8 11.3 0.00 0.00 0.00 80 1006.0
20260505041146 73 178 6.1 7.8 0.00 0.00 0.00 79 1006.3
20260505040643 73 169 4.3 7.8 0.00 0.00 0.00 80 1006.3
20260505040140 73 190 7.0 7.8 0.00 0.00 0.00 79 1006.2
20260505035636 73 179 11.3 14.8 0.00 0.00 0.00 79 1006.1
20260505035133 73 174 4.3 7.8 0.00 0.00 0.00 79 1006.0
20260505034629 73 178 5.2 7.0 0.00 0.00 0.00 79 1006.3
20260505034127 73 192 5.2 6.1 0.00 0.00 0.00 79 1006.0
20260505033623 73 171 4.3 6.1 0.00 0.00 0.00 79 1006.1
20260505033122 73 203 6.1 8.7 0.00 0.00 0.00 79 1006.2
20260505032619 73 158 7.8 8.7 0.00 0.00 0.00 79 1006.2
20260505032115 73 192 1.7 3.5 0.00 0.00 0.00 79 1006.1
20260505031613 73 190 7.8 12.2 0.00 0.00 0.00 79 1006.3
20260505031109 73 186 7.8 9.6 0.00 0.00 0.00 79 1006.4
20260505030606 73 201 4.3 7.0 0.00 0.00 0.00 79 1006.6
20260505025557 73 194 2.6 3.5 0.00 0.00 0.00 79 1006.1
20260505025057 73 202 7.0 7.8 0.00 0.00 0.00 78 1006.2
20260505024553 73 175 6.1 9.6 0.00 0.00 0.00 78 1005.9
20260505024051 73 190 7.8 8.7 0.00 0.00 0.00 78 1006.1
20260505023548 73 190 6.1 7.8 0.00 0.00 0.00 78 1005.8
20260505023045 73 201 5.2 7.0 0.00 0.00 0.00 78 1005.9
20260505022543 74 119 5.2 7.8 0.00 0.00 0.00 78 1005.9
20260505022040 74 126 7.0 9.6 0.00 0.00 0.00 77 1006.0
20260505021536 74 214 7.8 9.6 0.00 0.00 0.00 77 1005.9
20260505021032 74 184 5.2 7.0 0.00 0.00 0.00 77 1005.8
20260505020527 74 142 6.1 7.0 0.00 0.00 0.00 77 1005.9
20260505020024 74 139 4.3 6.1 0.00 0.00 0.00 77 1005.7
20260505015521 74 113 7.8 8.7 0.00 0.00 0.00 77 1005.9
20260505015018 74 186 4.3 5.2 0.00 0.00 0.00 76 1005.9
20260505014515 74 168 3.5 6.1 0.00 0.00 0.00 76 1005.8